Location: Ariel
(45.9570°N, 122.5700°W)
Time: 15:02:14
(UTC-07:00)

Tiros 1 - Pass Details

Date: 25 July 2019
Orbit: 631 x 664 km, 48.4° (Epoch: 25 August)

Event Time Altitude Azimuth Distance (km) Brightness Sun altitude
Rises 13:44:31 0° 264° (W) 2,987 10.7 63.0°
Reaches altitude 10° 13:46:52 10° 267° (W) 2,078 10.0 62.9°
Maximum altitude 13:51:40 69° 351° (N) 709 8.2 62.7°
Drops below altitude 10° 13:56:28 10° 76° (ENE) 2,084 9.7 62.4°
Sets 13:58:50 0° 78° (ENE) 2,995 10.4 62.2°
